Weather History for Farmingdale, NY

Change the Weather History Date:

Tuesday, January 15, 2013

  Actual Average Record
Temperature  
Mean Temperature 36 °F -  
Max Temperature 37 °F 34 °F 53 °F (2007)
Min Temperature 34 °F 21 °F 1 °F (2004)
Degree Days  
Heating Degree Days 30    
Moisture  
Dew Point 28 °F    
Average Humidity 72    
Maximum Humidity 89    
Minimum Humidity 60    
Precipitation  
Precipitation 0.05 in - - ()
Sea Level Pressure  
Sea Level Pressure 30.28 in    
Wind  
Wind Speed 8 mph (NNE)    
Max Wind Speed 14 mph    
Max Gust Speed -    
Visibility 10 miles    
Events Rain    
Averages and records for this station are not official NWS values.
T = Trace of Precipitation, MM = Missing Value Source: NWS Daily Summary

Daily Weather History Graph

Daily Weather History Graph

Search for Another Location

Airport:

Trip Planner

Search our weather history database for the weather conditions in past years. The results will help you decide how hot, cold, wet, or windy it might be!

Date:

Astronomy

Jan. 15, 2013 Rise Set
Actual Time 7:15 AM EST 4:51 PM EST
Civil Twilight 6:45 AM EST 5:21 PM EST
Nautical Twilight 6:11 AM EST 5:55 PM EST
Astronomical Twilight 5:38 AM EST 6:27 PM EST
Moon 9:18 AM EST (1/15) 9:40 PM EST (1/15)
Length of Visible Light 10h 35m
Length of Day
9h 35m
Waxing Crescent, 19% of the Moon is Illuminated
Jan 15
Waxing Crescent
Jan 18
First Quarter
Jan 26
Full
Feb 3
Last Quarter
Feb 10
New

Hourly Weather History & Observations

Time (EST) Temp. Windchill Dew Point Humidity Pressure Visibility Wind Dir Wind Speed Gust Speed Precip Events Conditions
12:53 AM 37.0 °F 31.6 °F 32.0 °F 82% 30.28 in 10.0 mi NNE 6.9 mph - 0.00 in Rain Light Rain
1:53 AM 36.0 °F 29.6 °F 32.0 °F 86% 30.27 in 9.0 mi NE 8.1 mph - 0.02 in Rain Light Rain
2:53 AM 35.1 °F 28.6 °F 30.9 °F 85% 30.27 in 9.0 mi NNE 8.1 mph - 0.02 in Rain Light Rain
3:53 AM 34.0 °F 25.5 °F 30.9 °F 89% 30.22 in 10.0 mi NNE 11.5 mph - 0.00 in Rain Light Rain
4:53 AM 35.1 °F 31.0 °F 30.9 °F 85% 30.26 in 10.0 mi NNE 4.6 mph - 0.00 in   Overcast
5:53 AM 35.1 °F 30.1 °F 32.0 °F 89% 30.26 in 10.0 mi NNE 5.8 mph - N/A   Overcast
6:53 AM 36.0 °F 28.5 °F 30.9 °F 82% 30.28 in 10.0 mi North 10.4 mph - N/A   Overcast
7:53 AM 36.0 °F 28.5 °F 30.0 °F 79% 30.30 in 10.0 mi North 10.4 mph - N/A   Overcast
8:53 AM 37.0 °F 31.6 °F 28.9 °F 73% 30.33 in 10.0 mi NNE 6.9 mph - N/A   Overcast
9:53 AM 36.0 °F 27.1 °F 27.0 °F 70% 30.34 in 10.0 mi NNE 13.8 mph - N/A   Overcast
10:53 AM 37.0 °F 29.3 °F 27.0 °F 67% 30.33 in 10.0 mi North 11.5 mph - N/A   Overcast
11:53 AM 37.0 °F 31.6 °F 27.0 °F 67% 30.31 in 10.0 mi North 6.9 mph - N/A   Overcast
12:34 PM 37.4 °F 31.4 °F 26.6 °F 65% 30.29 in 8.0 mi North 8.1 mph - N/A   Overcast
12:53 PM 37.9 °F 32.1 °F 26.1 °F 62% 30.27 in 10.0 mi NE 8.1 mph - N/A   Overcast
1:53 PM 37.0 °F 31.6 °F 26.1 °F 65% 30.27 in 10.0 mi NNE 6.9 mph - N/A   Overcast
2:53 PM 37.9 °F 32.7 °F 26.1 °F 62% 30.27 in 10.0 mi NE 6.9 mph - N/A   Overcast
3:53 PM 37.9 °F 33.5 °F 27.0 °F 65% 30.27 in 10.0 mi NNE 5.8 mph - N/A   Overcast
4:53 PM 37.9 °F 33.5 °F 27.0 °F 65% 30.28 in 10.0 mi North 5.8 mph - N/A   Overcast
5:53 PM 37.9 °F 32.7 °F 26.1 °F 62% 30.27 in 10.0 mi NNE 6.9 mph - N/A   Overcast
6:53 PM 37.9 °F 32.7 °F 26.1 °F 62% 30.28 in 10.0 mi North 6.9 mph - N/A   Overcast
7:53 PM 37.9 °F 33.5 °F 25.0 °F 60% 30.27 in 10.0 mi NNE 5.8 mph - N/A   Overcast
8:53 PM 37.9 °F 34.4 °F 25.0 °F 60% 30.27 in 10.0 mi NNE 4.6 mph - N/A   Overcast
9:53 PM 37.0 °F 33.3 °F 25.0 °F 62% 30.25 in 10.0 mi NE 4.6 mph - N/A   Overcast
10:53 PM 37.0 °F 34.5 °F 27.0 °F 67% 30.24 in 10.0 mi North 3.5 mph - 0.00 in Rain Light Rain
11:53 PM 35.1 °F 30.1 °F 30.0 °F 82% 30.23 in 8.0 mi NNE 5.8 mph - 0.01 in Rain Light Rain